NJT300 PANC-PAJN

Flight info

Callsign NJT300
Flight time 1h 9m
Altitude 37000
Route JOH J501 YAK FAKES ASORT
Aircraft A20N/M-SDE2E3FGHIRWXY/LB1

Departure

Time 2026-05-04 05:56
Airport Ted Stevens Anchorage International Airport (PANC)

Arrival

Time 2026-05-04 07:05
Airport Juneau International Airport (PAJN)
Time Latitude Longitude Altitude Speed Heading
2026-05-04 05:32 61.17650 -149.99226 103 ft 0 kts 70°
2026-05-04 05:51 61.17492 -149.98973 103 ft 11 kts 162°
2026-05-04 05:51 61.17416 -149.98917 105 ft 13 kts 160°
2026-05-04 05:52 61.17314 -149.98839 109 ft 17 kts 160°
2026-05-04 05:52 61.17218 -149.98846 111 ft 13 kts 221°
2026-05-04 05:52 61.17160 -149.98985 116 ft 14 kts 230°
2026-05-04 05:52 61.17125 -149.99217 118 ft 20 kts 270°
2026-05-04 05:53 61.17126 -149.99541 124 ft 24 kts 270°
2026-05-04 05:54 61.16978 -150.00615 136 ft 0 kts 88°
2026-05-04 05:55 61.16978 -150.00400 135 ft 45 kts 90°
2026-05-04 05:55 61.16981 -149.99275 125 ft 108 kts 90°
2026-05-04 05:55 61.16980 -149.97376 108 ft 154 kts 90°
2026-05-04 05:55 61.16980 -149.95077 530 ft 158 kts 90°
2026-05-04 05:56 61.16975 -149.92800 1153 ft 158 kts 89°
2026-05-04 05:56 61.16976 -149.90530 1810 ft 158 kts 89°
2026-05-04 05:56 61.16956 -149.88154 2201 ft 174 kts 98°
2026-05-04 05:56 61.16552 -149.85674 2526 ft 191 kts 111°
2026-05-04 05:57 61.16032 -149.82996 2895 ft 209 kts 111°
2026-05-04 05:57 61.15460 -149.80037 3341 ft 231 kts 112°
2026-05-04 05:57 61.14847 -149.76866 4058 ft 244 kts 113°
2026-05-04 05:57 61.14222 -149.73620 5265 ft 241 kts 114°
2026-05-04 05:58 61.13586 -149.70325 6168 ft 252 kts 115°
2026-05-04 05:58 61.12917 -149.66891 7003 ft 262 kts 115°
2026-05-04 05:58 61.12220 -149.63350 7923 ft 269 kts 116°
2026-05-04 05:58 61.11511 -149.59733 8832 ft 273 kts 116°
2026-05-04 05:59 61.10781 -149.56028 9670 ft 282 kts 118°
2026-05-04 05:59 61.10011 -149.52222 10479 ft 295 kts 116°
2026-05-04 05:59 61.09230 -149.48110 10824 ft 320 kts 117°
2026-05-04 05:59 61.08367 -149.43703 11263 ft 339 kts 117°
2026-05-04 06:00 61.07460 -149.39137 12056 ft 346 kts 117°
2026-05-04 06:00 61.06536 -149.34489 12894 ft 352 kts 118°
2026-05-04 06:00 61.05594 -149.29767 13712 ft 359 kts 118°
2026-05-04 06:00 61.04636 -149.24972 14505 ft 363 kts 118°
2026-05-04 06:01 61.03686 -149.20198 15275 ft 366 kts 118°
2026-05-04 06:01 61.02706 -149.15306 16032 ft 371 kts 118°
2026-05-04 06:03 60.95465 -148.79575 20798 ft 399 kts 120°
2026-05-04 06:03 60.94380 -148.74280 21430 ft 403 kts 120°
2026-05-04 06:05 60.86473 -148.36055 25203 ft 428 kts 121°
2026-05-04 06:05 60.84095 -148.24728 26078 ft 436 kts 121°
2026-05-04 06:05 60.82883 -148.18975 26458 ft 441 kts 121°
2026-05-04 06:06 60.81666 -148.13196 26920 ft 444 kts 121°
2026-05-04 06:06 60.80434 -148.07363 27353 ft 447 kts 121°
2026-05-04 06:06 60.79191 -148.01495 27797 ft 450 kts 122°
2026-05-04 06:06 60.77937 -147.95592 28199 ft 454 kts 122°
2026-05-04 06:07 60.76672 -147.89654 28602 ft 456 kts 122°
2026-05-04 06:07 60.75395 -147.83685 28968 ft 459 kts 122°
2026-05-04 06:07 60.74121 -147.77740 29333 ft 462 kts 122°
2026-05-04 06:07 60.72823 -147.71706 29688 ft 465 kts 122°
2026-05-04 06:08 60.71514 -147.65633 29974 ft 468 kts 122°
2026-05-04 06:08 60.70187 -147.59506 30173 ft 475 kts 122°
2026-05-04 06:08 60.68847 -147.53332 30501 ft 477 kts 123°
2026-05-04 06:08 60.67494 -147.47110 30799 ft 480 kts 123°
2026-05-04 06:09 60.66134 -147.40871 31103 ft 483 kts 123°
2026-05-04 06:09 60.64766 -147.34617 31427 ft 485 kts 123°
2026-05-04 06:11 60.54983 -146.90438 33630 ft 494 kts 125°
2026-05-04 06:11 60.53555 -146.84060 33976 ft 494 kts 126°
2026-05-04 06:13 60.45608 -146.37521 36011 ft 510 kts 111°
2026-05-04 06:14 60.40887 -145.95736 37235 ft 505 kts 111°
2026-05-04 06:14 60.40088 -145.88810 37235 ft 504 kts 111°
2026-05-04 06:15 60.38749 -145.77308 37237 ft 509 kts 111°
2026-05-04 06:15 60.37093 -145.63240 37234 ft 518 kts 111°
2026-05-04 06:16 60.35419 -145.49071 37241 ft 517 kts 111°
2026-05-04 06:16 60.33731 -145.34933 37244 ft 517 kts 111°
2026-05-04 06:17 60.32028 -145.20829 37246 ft 517 kts 111°
2026-05-04 06:17 60.30312 -145.06764 37249 ft 517 kts 112°
2026-05-04 06:18 60.28581 -144.92722 37239 ft 516 kts 111°
2026-05-04 06:20 60.21469 -144.36427 37253 ft 526 kts 111°
2026-05-04 06:21 60.16857 -144.00902 37273 ft 526 kts 112°
2026-05-04 06:22 60.14977 -143.86686 37276 ft 526 kts 112°
2026-05-04 06:25 60.01430 -142.87879 37289 ft 527 kts 112°
2026-05-04 06:26 59.99432 -142.73796 37284 ft 526 kts 113°
2026-05-04 06:26 59.97419 -142.59742 37288 ft 526 kts 113°
2026-05-04 06:27 59.92329 -142.24755 37292 ft 528 kts 113°
2026-05-04 06:28 59.90258 -142.10709 37295 ft 527 kts 113°
2026-05-04 06:28 59.88173 -141.96700 37297 ft 527 kts 113°
2026-05-04 06:29 59.86073 -141.82708 37295 ft 527 kts 114°
2026-05-04 06:29 59.83958 -141.68730 37275 ft 527 kts 114°
2026-05-04 06:30 59.81836 -141.54830 37306 ft 528 kts 114°
2026-05-04 06:30 59.79690 -141.40868 37306 ft 528 kts 114°
2026-05-04 06:31 59.77527 -141.26923 37306 ft 528 kts 114°
2026-05-04 06:31 59.75351 -141.12999 37303 ft 528 kts 114°
2026-05-04 06:33 59.66460 -140.57264 37314 ft 532 kts 114°
2026-05-04 06:34 59.64193 -140.43329 37316 ft 532 kts 114°
2026-05-04 06:34 59.61905 -140.29386 37312 ft 534 kts 114°
2026-05-04 06:36 59.52632 -139.73890 37281 ft 533 kts 114°
2026-05-04 06:37 59.49874 -139.60437 37312 ft 525 kts 124°
2026-05-04 06:37 59.46385 -139.47891 37313 ft 522 kts 126°
2026-05-04 06:38 59.42898 -139.35363 37313 ft 522 kts 126°
2026-05-04 06:40 59.28819 -138.85484 37321 ft 522 kts 126°
2026-05-04 06:40 59.25272 -138.73097 37320 ft 522 kts 126°
2026-05-04 06:41 59.21736 -138.60816 37330 ft 522 kts 126°
2026-05-04 06:41 59.18161 -138.48463 37324 ft 522 kts 126°
2026-05-04 06:42 59.14551 -138.36065 37323 ft 528 kts 126°
2026-05-04 06:44 59.00281 -137.87670 33884 ft 513 kts 126°
2026-05-04 06:44 58.98492 -137.81667 33099 ft 513 kts 126°
2026-05-04 06:44 58.96701 -137.75687 32296 ft 514 kts 126°
2026-05-04 06:45 58.94903 -137.69698 31514 ft 513 kts 126°
2026-05-04 06:45 58.93120 -137.63756 30957 ft 508 kts 126°
2026-05-04 06:45 58.91351 -137.57877 30350 ft 504 kts 125°
2026-05-04 06:45 58.89604 -137.52086 29716 ft 501 kts 125°
2026-05-04 06:46 58.87860 -137.46316 29126 ft 494 kts 125°
2026-05-04 06:46 58.86133 -137.40617 28535 ft 489 kts 125°
2026-05-04 06:46 58.84418 -137.34988 27932 ft 484 kts 125°
2026-05-04 06:46 58.82713 -137.29410 27367 ft 477 kts 125°
2026-05-04 06:48 58.71201 -136.92063 23308 ft 449 kts 124°
2026-05-04 06:48 58.69606 -136.86926 22711 ft 444 kts 124°
2026-05-04 06:49 58.68013 -136.81811 21803 ft 447 kts 124°
2026-05-04 06:50 58.57260 -136.47529 17909 ft 411 kts 124°
2026-05-04 06:51 58.55781 -136.42870 17369 ft 406 kts 124°
2026-05-04 06:51 58.54321 -136.38285 16833 ft 401 kts 125°
2026-05-04 06:51 58.52873 -136.33737 16312 ft 398 kts 125°
2026-05-04 06:51 58.51438 -136.29227 15792 ft 395 kts 125°
2026-05-04 06:52 58.50010 -136.24750 15278 ft 392 kts 125°
2026-05-04 06:52 58.48591 -136.20314 14770 ft 390 kts 125°
2026-05-04 06:52 58.47179 -136.15908 14267 ft 388 kts 125°
2026-05-04 06:52 58.45772 -136.11521 13727 ft 385 kts 125°
2026-05-04 06:53 58.44383 -136.07192 13229 ft 380 kts 125°
2026-05-04 06:53 58.43003 -136.02908 12742 ft 377 kts 125°
2026-05-04 06:53 58.41634 -135.98671 12249 ft 373 kts 124°
2026-05-04 06:53 58.40276 -135.94473 11775 ft 369 kts 124°
2026-05-04 06:54 58.38932 -135.90323 11303 ft 367 kts 124°
2026-05-04 06:54 58.37598 -135.86195 10827 ft 364 kts 122°
2026-05-04 06:54 58.36672 -135.81774 10408 ft 362 kts 101°
2026-05-04 06:54 58.36519 -135.77101 10259 ft 346 kts 83°
2026-05-04 06:55 58.36744 -135.72622 10122 ft 333 kts 82°
2026-05-04 06:55 58.36966 -135.68265 9789 ft 328 kts 82°
2026-05-04 06:55 58.37181 -135.63983 9551 ft 319 kts 82°
2026-05-04 06:55 58.37390 -135.59794 9341 ft 319 kts 82°
2026-05-04 06:56 58.37530 -135.57003 9093 ft 320 kts 83°
2026-05-04 06:57 58.38897 -135.28807 6803 ft 295 kts 84°
2026-05-04 06:58 58.39079 -135.24940 6445 ft 292 kts 84°
2026-05-04 06:58 58.39257 -135.21112 6148 ft 287 kts 84°
2026-05-04 06:58 58.39433 -135.17367 5882 ft 281 kts 84°
2026-05-04 06:58 58.39601 -135.13779 5649 ft 259 kts 84°
2026-05-04 06:59 58.39750 -135.10483 5282 ft 243 kts 84°
2026-05-04 06:59 58.39890 -135.07358 4810 ft 230 kts 85°
2026-05-04 06:59 58.40022 -135.04385 4336 ft 221 kts 85°
2026-05-04 06:59 58.40149 -135.01517 3899 ft 213 kts 85°
2026-05-04 07:01 58.39216 -134.84614 2531 ft 166 kts 105°
2026-05-04 07:01 58.38932 -134.82527 2436 ft 154 kts 105°
2026-05-04 07:02 58.38673 -134.80627 2345 ft 145 kts 105°
2026-05-04 07:02 58.38418 -134.78767 2266 ft 146 kts 105°
2026-05-04 07:02 58.38163 -134.76909 2189 ft 144 kts 105°
2026-05-04 07:02 58.37909 -134.75061 2109 ft 144 kts 105°
2026-05-04 07:03 58.37655 -134.73221 2032 ft 144 kts 105°
2026-05-04 07:03 58.37401 -134.71389 1957 ft 145 kts 104°
2026-05-04 07:03 58.37145 -134.69537 1804 ft 144 kts 104°
2026-05-04 07:03 58.36889 -134.67691 1577 ft 144 kts 104°
2026-05-04 07:04 58.36635 -134.65853 1263 ft 142 kts 104°
2026-05-04 07:04 58.36384 -134.64042 903 ft 141 kts 104°
2026-05-04 07:04 58.36145 -134.62246 588 ft 139 kts 103°
2026-05-04 07:04 58.35897 -134.60492 168 ft 138 kts 106°
2026-05-04 07:05 58.35657 -134.58824 33 ft 114 kts 104°
2026-05-04 07:05 58.35531 -134.57917 34 ft 32 kts 105°
2026-05-04 07:05 58.35472 -134.57497 34 ft 32 kts 105°
2026-05-04 07:05 58.35497 -134.57272 35 ft 6 kts
2026-05-04 07:06 58.35583 -134.57458 34 ft 14 kts 284°
2026-05-04 07:06 58.35610 -134.57656 34 ft 17 kts 284°
2026-05-04 07:06 58.35644 -134.57900 34 ft 20 kts 284°
2026-05-04 07:07 58.35682 -134.58172 33 ft 20 kts 285°